STARLINK-32360, 61007

Orbit data source: Space-Track

STARLINK-32360, 61007 is a payload satellite owned by SpaceX/Seattle (US) in LEO that was launched on Thu, 05 Sep 2024 UTC via an FALCON 9 launch vehicle from the Air Force Eastern Test Range (AFETR). Payload-class satellites include a variety of spacecraft equipped with specific instruments for various scientific and technological missions. These include communications satellites like Starlink; space stations such as the ISS; scientific satellites like the Hubble; Earth observation satellites from companies like Planet Labs, Umbra, and HawkEye 360; GPS; miniature CubeSats for education and research; and military/defense satellites.

Loading next visibility...
Identifier
61007, 2024-158T
Orbit
LEO
Country
Flag of USUS
Related business
Manufacturer
SpaceX/Seattle
Mission
Operational Commercial Communications
Bus & Motor
STARLINK V2M, Unknown motor
Mass
730 kg wet, ~700 kg dry
Launch date (UTC)
2024-09-05 (2 years ago)
Launch vehicle
FALCON 9
Launch site
Air Force Eastern Test Range (AFETR)
Object type
Payload
Rocket body
Debris
Shape & HBR
Box + 2 Pan, 17.7 m
Radar Cross Section
33.884 m², Large (>1 m²)

Expand to show TLE details & history
Last TLE update: 20 hours ago

TLE from 20 hours ago
0 STARLINK-32360
1 61007U 24158T   26124.48320416  .00000499  00000-0  28982-4 0  9992
2 61007  53.1613 151.0684 0001282  78.6873 281.4271 15.30191859 94338
Epoch: 2026-05-04T11:35Z
TLE epoch observation values (Epoch: 2026-05-04T11:35:48.839Z)
Latitude
-0.00008°
Longitude
114.74309°
Altitude
475.965 km
Speed
7.629 km/s
True Right ascension
10h 04m 16s
True Declination
0° 00' 00"
Sunlit
Object was in daylight at epoch
Visualization orbit readout
Latitude
Unknown
Longitude
Unknown
Altitude
Unknown
Speed
Unknown
Apparent Right ascension
Unknown
Apparent Declination
Unknown
Sunlit
N/A
Visualization observer readout
Local Sidereal Time
15:04:47
Azimuth
Unknown
Elevation
Unknown
Doppler factor
Unknown
Orbital elements
Apogee altitude
476.374 km
Perigee altitude
474.617 km
Semi-major axis
6,853.633 km
Eccentricity
0.00013
Inclination
53.1613°
RAAN
151.0684°
Arg. of periapsis
78.6873°
True anomaly
281.4127°
Mean anomaly
281.4271°
Eccentric anomaly
281.4199°
Mean motion
3.82527 °/min
Orbital period
94.11 mins
BSTAR
0.000028982
Loading maneuver chart data...
Computing Atmospheric mass density...
Loading historical data...
Loading historical data...
Loading historical data...
Loading historical data...
Loading historical data...
Loading historical data...
Loading historical data...

Documentation

Showing up to 5 results
|